| time (UTC) | temp C | wind direction | speed KPH | gust KPH | rain 1hr cm | rain 24hr cm | rain mn cm | humidity % | barometer mb |
| 20260505220505 | 12 | 26 | 0.0 | 0.0 | 0.00 | 0.00 | 0.00 | 70 | 1013.1 |
| 20260505203505 | 13 | 73 | 0.0 | 0.0 | 0.00 | 0.00 | 0.00 | 69 | 1012.5 |
| 20260505200505 | 13 | 320 | 0.0 | 0.0 | 0.00 | 0.00 | 0.00 | 70 | 1012.2 |
| 20260505190005 | 13 | 320 | 0.0 | 0.0 | 0.00 | 0.00 | 0.00 | 66 | 1011.8 |
| 20260505183004 | 14 | 320 | 0.0 | 0.0 | 0.00 | 0.00 | 0.00 | 68 | 1011.5 |
| 20260505180005 | 14 | 320 | 0.0 | 0.0 | 0.00 | 0.00 | 0.00 | 68 | 1011.6 |
| 20260505173005 | 15 | 340 | 0.0 | 4.8 | 0.00 | 0.00 | 0.00 | 63 | 1011.6 |
| 20260505170505 | 15 | 14 | 0.0 | 0.0 | 0.00 | 0.00 | 0.00 | 63 | 1011.6 |
| 20260505170005 | 15 | 14 | 0.0 | 0.0 | 0.00 | 0.00 | 0.00 | 63 | 1011.6 |
| 20260505153006 | 16 | 342 | 1.6 | 8.0 | 0.00 | 0.00 | 0.00 | 59 | 1011.8 |
| 20260505123005 | 16 | 44 | 0.0 | 8.0 | 0.00 | 0.00 | 0.00 | 56 | 1012.4 |
| 20260505113505 | 16 | 61 | 1.6 | 4.8 | 0.00 | 0.00 | 0.00 | 59 | 1012.5 |
| 20260505113004 | 16 | 9 | 1.6 | 19.3 | 0.00 | 0.00 | 0.00 | 57 | 1012.6 |
| 20260505110505 | 15 | 54 | 4.8 | 14.5 | 0.00 | 0.00 | 0.00 | 62 | 1012.7 |
| 20260505100504 | 14 | 328 | 6.4 | 12.9 | 0.00 | 0.00 | 0.00 | 72 | 1013.1 |
| 20260505100004 | 14 | 0 | 0.0 | 14.5 | 0.00 | 0.00 | 0.00 | 72 | 1013.1 |
| 20260505093504 | 13 | 345 | 1.6 | 8.0 | 0.00 | 0.00 | 0.00 | 75 | 1013.2 |
| 20260505093004 | 13 | 327 | 1.6 | 16.1 | 0.00 | 0.00 | 0.00 | 76 | 1013.2 |
| 20260505090504 | 12 | 340 | 1.6 | 12.9 | 0.00 | 0.00 | 0.00 | 78 | 1013.4 |
| 20260505090004 | 12 | 341 | 3.2 | 9.7 | 0.00 | 0.00 | 0.00 | 78 | 1013.4 |
| 20260505080505 | 12 | 340 | 6.4 | 14.5 | 0.00 | 0.00 | 0.00 | 79 | 1013.6 |
| 20260505073004 | 12 | 338 | 1.6 | 12.9 | 0.00 | 0.00 | 0.00 | 84 | 1013.4 |
| 20260505070504 | 12 | 334 | 4.8 | 9.7 | 0.00 | 0.00 | 0.00 | 84 | 1013.5 |
| 20260505060004 | 11 | 6 | 0.0 | 3.2 | 0.00 | 0.00 | 0.00 | 89 | 1013.6 |
| 20260505040005 | 11 | 53 | 0.0 | 0.0 | 0.00 | 0.00 | 0.00 | 87 | 1013.8 |
| 20260505033002 | 11 | 53 | 0.0 | 4.8 | 0.00 | 0.00 | 0.00 | 87 | 1013.9 |
| 20260505030502 | 11 | 50 | 1.6 | 4.8 | 0.00 | 0.00 | 0.00 | 87 | 1013.9 |
| 20260505023502 | 11 | 40 | 1.6 | 4.8 | 0.00 | 0.00 | 0.00 | 86 | 1013.9 |
| 20260505020502 | 12 | 35 | 0.0 | 0.0 | 0.00 | 0.00 | 0.00 | 85 | 1014.0 |
| 20260505020002 | 12 | 35 | 0.0 | 3.2 | 0.00 | 0.00 | 0.00 | 85 | 1013.9 |
| 20260505013002 | 12 | 352 | 0.0 | 4.8 | 0.00 | 0.00 | 0.00 | 86 | 1014.3 |
| 20260505010502 | 12 | 352 | 0.0 | 0.0 | 0.00 | 0.00 | 0.00 | 85 | 1014.4 |
| 20260505010002 | 12 | 352 | 0.0 | 3.2 | 0.00 | 0.00 | 0.00 | 85 | 1014.5 |
| 20260505003002 | 12 | 348 | 1.6 | 4.8 | 0.00 | 0.00 | 0.00 | 83 | 1014.6 |
| 20260505000502 | 12 | 344 | 0.0 | 0.0 | 0.00 | 0.00 | 0.00 | 82 | 1014.7 |
| 20260504230503 | 13 | 340 | 0.0 | 4.8 | 0.00 | 0.00 | 0.00 | 81 | 1014.9 |
| 20260504223502 | 13 | 341 | 1.6 | 4.8 | 0.00 | 0.00 | 0.00 | 81 | 1014.9 |
| 20260504223002 | 13 | 336 | 3.2 | 9.7 | 0.00 | 0.00 | 0.00 | 81 | 1015.0 |